Rochester, NH

1:46 AM EDT on April 26, 2018 (GMT -0400)
Skyhaven

Weather History for KDAW - May, 2013

Change the Weather History Date:

Sunday, May 5, 2013

  Actual Average (KPSM) Record (KPSM)
Temperature  
Mean Temperature 46 °F -  
Max Temperature 62 °F 61 °F 80 °F (2000)
Min Temperature 30 °F 42 °F 27 °F (1985)
Degree Days  
Heating Degree Days 20    
Moisture  
Dew Point 35 °F    
Average Humidity 69    
Maximum Humidity 92    
Minimum Humidity 42    
Precipitation  
Precipitation 0.00 in - - ()
Sea Level Pressure  
Sea Level Pressure 30.29 in    
Wind  
Wind Speed 5 mph (SSW)    
Max Wind Speed 10 mph    
Max Gust Speed 17 mph    
Visibility 10 miles    
Events      
Averages and records for this station are not official NWS values.
T = Trace of Precipitation, MM = Missing Value Source: NWS Daily Summary

Daily Weather History Graph

Daily Weather History Graph

Search for Another Location

Airport or City:

Astronomy

May. 05, 2013 Rise Set
Actual Time 5:31 AM EDT 7:50 PM EDT
Civil Twilight 4:59 AM EDT 8:22 PM EDT
Nautical Twilight 4:20 AM EDT 9:01 PM EDT
Astronomical Twilight 3:36 AM EDT 9:45 PM EDT
Moon 3:07 AM EDT (5/5) 3:40 PM EDT (5/5)
Length of Visible Light 15h 22m
Length of Day
14h 18m
Waning Crescent, 18% of the Moon is Illuminated
May 5
Waning Crescent
May 9
New
May 18
First Quarter
May 25
Full
May 31
Last Quarter

Hourly Weather History & Observations

Time (EDT) Temp. Windchill Dew Point Humidity Pressure Visibility Wind Dir Wind Speed Gust Speed Precip Events Conditions
12:51 AM 36.0 °F 32.1 °F 33.1 °F 89% 30.34 in 10.0 mi NW 4.6 mph - N/A   Clear
1:51 AM 35.1 °F 30.1 °F 33.1 °F 92% 30.32 in 10.0 mi NW 5.8 mph - N/A   Clear
2:51 AM 34.0 °F 29.8 °F 32.0 °F 92% 30.32 in 10.0 mi NW 4.6 mph - N/A   Clear
3:51 AM 32.0 °F 27.5 °F 30.0 °F 92% 30.32 in 10.0 mi NW 4.6 mph - N/A   Clear
4:51 AM 30.9 °F 26.2 °F 28.9 °F 92% 30.31 in 10.0 mi NW 4.6 mph - N/A   Clear
5:51 AM 30.9 °F 24.3 °F 28.9 °F 92% 30.31 in 10.0 mi NW 6.9 mph - N/A   Clear
6:51 AM 35.1 °F 32.2 °F 33.1 °F 92% 30.32 in 10.0 mi NNW 3.5 mph - N/A   Clear
7:51 AM 44.1 °F - 36.0 °F 73% 30.32 in 10.0 mi Calm Calm - N/A   Clear
8:51 AM 52.0 °F - 35.1 °F 53% 30.32 in 10.0 mi Variable 3.5 mph - N/A   Clear
9:51 AM 53.1 °F - 35.1 °F 50% 30.32 in 10.0 mi South 4.6 mph - N/A   Clear
10:51 AM 55.9 °F - 36.0 °F 47% 30.31 in 10.0 mi Variable 4.6 mph - N/A   Clear
11:51 AM 57.9 °F - 36.0 °F 44% 30.30 in 10.0 mi Calm Calm - N/A   Clear
12:51 PM 60.1 °F - 37.0 °F 42% 30.28 in 10.0 mi ENE 5.8 mph - N/A   Clear
1:51 PM 61.0 °F - 37.9 °F 42% 30.27 in 10.0 mi SSE 8.1 mph 17.3 mph N/A   Clear
2:51 PM 60.1 °F - 37.0 °F 42% 30.27 in 10.0 mi SE 10.4 mph - N/A   Clear
4:51 PM 57.0 °F - 37.9 °F 49% 30.25 in 10.0 mi SE 10.4 mph - N/A   Clear
6:51 PM 53.1 °F - 37.0 °F 55% 30.26 in 10.0 mi SSE 6.9 mph - N/A   Clear
7:51 PM 50.0 °F - 37.0 °F 61% 30.26 in 10.0 mi South 3.5 mph - N/A   Clear
8:51 PM 46.9 °F - 37.9 °F 71% 30.27 in 10.0 mi South 4.6 mph - N/A   Clear
9:51 PM 44.1 °F 42.5 °F 37.9 °F 79% 30.27 in 10.0 mi South 3.5 mph - N/A   Clear
10:51 PM 43.0 °F - 37.9 °F 82% 30.27 in 10.0 mi Calm Calm - N/A   Clear
11:51 PM 42.1 °F - 37.0 °F 82% 30.27 in 10.0 mi Calm Calm - N/A   Clear